Miscellaneous Local Product
Issued by NWS North Platte, NE

Home | Current Version | Previous Version | Text Only | Print | Product List | Glossary On
Versions: 1 2 3 4 5 6 7 8 9 10 11 12 13 14 15 16 17 18 19 20 21 22 23 24 25 26 27 28 29 30 31 32 33 34 35 36 37 38 39 40 41 42 43 44 45 46 47 48 49 50
000
AXUS43 KLBF 181210
MISLBF


WESTERN AND NORTH CENTRAL NEBRASKA HOURLY WEATHER ROUNDUP
NATIONAL WEATHER SERVICE NORTH PLATTE NE
700 AM CDT FRI APR 18 2014

***STATIONS NOT REPORTING VARIABLES SUCH AS SKY/WEATHER OR
PRESSURE ARE PROVIDED BY THE NEBRASKA DEPARTMENT OF
ROADS...RAWS...AND APRS NETWORKS...AND ARE NOT UNDER
NATIONAL WEATHER SERVICE QUALITY CONTROL***

...OBSERVATIONS IN AND NEAR THE EASTERN PANHANDLE OF NEBRASKA...

CITY           SKY/WX    TMP DP  RH WIND       PRES   REMARKS
PINE RIDGE     CLEAR     42  36  79 S16       29.86F
CHADRON        PTCLDY    40  34  79 CALM      29.85F
ALLIANCE       CLEAR     36  33  89 SE8       29.92S WCI  30
SIDNEY         CLEAR     38  34  85 SW13      29.97S WCI  30
WHITECLAY        N/A     40  33  78 S18         N/A  WCI  31
CRESCENT LAKE    N/A     36  35  98 SE7         N/A  WCI  30
LISCO            N/A     39  33  78 E8          N/A  WCI  33
BIG SPRINGS      N/A     38  35  89 SW7         N/A  WCI  33
LEWELLEN         N/A     37  34  88 SE7         N/A  WCI  31
$$

...OBSERVATIONS IN SOUTHWEST NEBRASKA AND FAR NORTHEAST COLORADO...

CITY           SKY/WX    TMP DP  RH WIND       PRES   REMARKS
WRAY           FAIR      39  34  82 S21G26    30.02F WCI  29
HOLYOKE        FAIR      37  34  87 S9        30.01S WCI  31
IMPERIAL       CLEAR     39  33  79 SE10      30.05R WCI  32
OGALLALA       CLEAR     37  33  86 CALM      30.02F
NORTH PLATTE   CLEAR     39  35  86 S12G22    30.06S WCI  32
MCCOOK         CLEAR     38  35  89 S8        30.11F WCI  32
LEXINGTON      CLEAR     41  38  89 S12       30.11F
PAXTON           N/A     38  35  90 S14         N/A  WCI  30
SUTHERLAND       N/A     33  30  90 S13         N/A  WCI  24
MEDICINE CREEK   N/A     34  30  86 CALM        N/A
GOTHENBURG       N/A     41  38  87 CALM        N/A
CALLAWAY         N/A     39  37  91 S15         N/A  WCI  30
$$

...OBSERVATIONS IN NORTH CENTRAL NEBRASKA...

CITY           SKY/WX    TMP DP  RH WIND       PRES   REMARKS
VALENTINE      PTCLDY    42  36  79 S15       29.96F
THEDFORD       CLEAR     42  37  80 S15G22    30.02S
AINSWORTH      PTCLDY    40  35  81 S18G24    29.99S WCI  31
O`NEILL        CLEAR     38  29  70 S12       30.10S WCI  30
ORD            CLEAR     34  29  82 SE6       30.13S WCI  29
BROKEN BOW     CLEAR     38  36  92 S13G24    30.09F WCI  30
BROWNLEE         N/A     42  39  89 S17         N/A
SPRINGVIEW       N/A     40  33  75 CALM        N/A
DUNNING          N/A     39  37  91 S7          N/A  WCI  34
BREWSTER         N/A     39  36  89 S9          N/A  WCI  33
ROSE             N/A     38  36  92 E15         N/A  WCI  30
NEWPORT          N/A     40  34  81 S14         N/A  WCI  32
COMSTOCK         N/A     39  37  93 S10         N/A  WCI  32
CHAMBERS         N/A     38  31  75 S8G20       N/A  WCI  32
EWING            N/A     35  28  75 CALM        N/A
$$

...SOME WEATHER OBSERVATIONS FROM AROUND THE REGION...

CITY           SKY/WX    TMP DP  RH WIND       PRES   REMARKS
DENVER         MOCLDY    49  25  39 SW16      29.99S
LARAMIE        PTCLDY    45  22  40 SW17G29   30.01F
CHEYENNE       PTCLDY    37  27  67 SW10      29.98F WCI  30
SCOTTSBLUFF    PTCLDY    36  32  85 E6        29.92S WCI  31
RAPID CITY     CLEAR     34  31  88 SE5       29.82F WCI  30
PIERRE         CLEAR     35  26  69 E14       29.97S WCI  26
WINNER         FAIR      45  34  65 S26G35    29.94F
SIOUX FALLS    CLOUDY    34  29  82 SE14      30.22F WCI  25
OMAHA          PTCLDY    30  26  85 CALM      30.28R
GRAND ISLAND   CLEAR     37  31  78 S8        30.19S WCI  31
KANSAS CITY    PTCLDY    36  32  85 SE3       30.30R FOG
WICHITA        FAIR      32  29  88 CALM      30.27R FOG
HAYS           CLEAR     34  30  86 S3        30.19F
LIBERAL        CLEAR     41  36  81 S10       30.20S
GOODLAND       CLEAR     33  31  92 S14       30.08S WCI  23
$$



USA.gov is the U.S. government's official web portal to all federal, state and local government web resources and services.